Weather History for KBIE - December, 2012

Change the Weather History Date:

Tuesday, December 25, 2012

  Actual Average Record
Temperature  
Mean Temperature 12 °F -  
Max Temperature 18 °F 36 °F 60 °F (1963)
Min Temperature 7 °F 14 °F -16 °F (1983)
Degree Days  
Heating Degree Days 52    
Moisture  
Dew Point 4 °F    
Average Humidity 68    
Maximum Humidity 79    
Minimum Humidity 58    
Precipitation  
Precipitation 0.00 in - - ()
Sea Level Pressure  
Sea Level Pressure 30.33 in    
Wind  
Wind Speed 14 mph (North)    
Max Wind Speed 21 mph    
Max Gust Speed 26 mph    
Visibility 10 miles    
Events      
Averages and records for this station are not official NWS values.
T = Trace of Precipitation, MM = Missing Value Source: NWS Daily Summary

Daily Weather History Graph

Daily Weather History Graph

Search for Another Location

Airport or City:

Trip Planner

Search our weather history database for the weather conditions in past years. The results will help you decide how hot, cold, wet, or windy it might be!

Date:

Astronomy

Dec. 25, 2012 Rise Set
Actual Time 7:48 AM CST 5:06 PM CST
Civil Twilight 7:17 AM CST 5:37 PM CST
Nautical Twilight 6:43 AM CST 6:11 PM CST
Astronomical Twilight 6:10 AM CST 6:44 PM CST
Moon 3:15 PM CST (12/25) 5:21 AM CST (12/25)
Length of Visible Light 10h 19m
Length of Day
9h 18m
Waxing Gibbous, 94% of the Moon is Illuminated
Dec 25
Waxing Gibbous
Dec 28
Full
Jan 4
Last Quarter
Jan 11
New
Jan 18
First Quarter

Hourly Weather History & Observations

Time (CST) Temp. Windchill Dew Point Humidity Pressure Visibility Wind Dir Wind Speed Gust Speed Precip Events Conditions
12:15 AM 18.7 °F 6.3 °F 11.1 °F 72% 30.20 in 10.0 mi NE 11.5 mph - N/A   Overcast
12:35 AM 18.5 °F 7.5 °F 10.9 °F 72% 30.20 in 10.0 mi NNE 9.2 mph - N/A   Overcast
12:55 AM 18.3 °F 6.6 °F 11.1 °F 73% 30.20 in 10.0 mi NNE 10.4 mph - N/A   Overcast
1:15 AM 17.6 °F 3.7 °F 10.8 °F 75% 30.19 in 10.0 mi North 13.8 mph 18.4 mph N/A   Overcast
1:35 AM 17.1 °F 3.6 °F 10.2 °F 75% 30.20 in 10.0 mi NNE 12.7 mph - N/A   Overcast
1:55 AM 16.3 °F 1.6 °F 8.6 °F 72% 30.20 in 10.0 mi North 15.0 mph 18.4 mph N/A   Mostly Cloudy
2:15 AM 15.8 °F 2.7 °F 7.7 °F 70% 30.22 in 10.0 mi NNE 11.5 mph - N/A   Overcast
2:35 AM 15.3 °F 0.8 °F 6.8 °F 69% 30.23 in 10.0 mi NNE 13.8 mph - N/A   Overcast
2:55 AM 14.7 °F 0.7 °F 5.7 °F 68% 30.24 in 10.0 mi North 12.7 mph 19.6 mph N/A   Overcast
3:15 AM 14.0 °F -2.5 °F 4.6 °F 66% 30.25 in 10.0 mi North 17.3 mph - N/A   Overcast
3:35 AM 13.1 °F -1.4 °F 3.6 °F 66% 30.27 in 10.0 mi North 12.7 mph - N/A   Mostly Cloudy
3:55 AM 12.7 °F -1.1 °F 2.3 °F 63% 30.27 in 10.0 mi North 11.5 mph - N/A   Mostly Cloudy
4:15 AM 12.2 °F 0.7 °F 2.5 °F 65% 30.27 in 10.0 mi NNE 8.1 mph - N/A   Scattered Clouds
4:35 AM 12.2 °F -2.5 °F 3.2 °F 67% 30.28 in 10.0 mi NNE 12.7 mph - N/A   Clear
4:55 AM 11.3 °F -2.2 °F 1.4 °F 64% 30.29 in 10.0 mi NNE 10.4 mph - N/A   Scattered Clouds
5:15 AM 11.3 °F -4.9 °F 1.2 °F 64% 30.29 in 10.0 mi North 15.0 mph - N/A   Mostly Cloudy
5:35 AM 10.4 °F -4.8 °F 0.5 °F 64% 30.30 in 10.0 mi North 12.7 mph 17.3 mph N/A   Scattered Clouds
5:55 AM 10.4 °F -7.2 °F 1.4 °F 67% 30.31 in 10.0 mi North 17.3 mph - N/A   Scattered Clouds
6:15 AM 9.9 °F -7.3 °F 0.7 °F 66% 30.32 in 10.0 mi North 16.1 mph - N/A   Scattered Clouds
6:35 AM 9.5 °F -6.6 °F 0.5 °F 67% 30.32 in 10.0 mi North 13.8 mph 18.4 mph N/A   Clear
6:55 AM 9.7 °F -7.5 °F 1.2 °F 69% 30.33 in 10.0 mi North 16.1 mph 23.0 mph N/A   Clear
7:15 AM 9.3 °F -8.0 °F 0.9 °F 69% 30.34 in 10.0 mi North 16.1 mph - N/A   Clear
7:35 AM 8.4 °F -10.3 °F 0.5 °F 70% 30.34 in 10.0 mi North 18.4 mph - N/A   Mostly Cloudy
7:55 AM 8.4 °F -10.3 °F 0.9 °F 71% 30.35 in 10.0 mi North 18.4 mph 24.2 mph N/A   Overcast
8:15 AM 8.1 °F -10.2 °F 0.5 °F 71% 30.36 in 10.0 mi North 17.3 mph 23.0 mph N/A   Overcast
8:35 AM 7.5 °F -10.9 °F -0.4 °F 70% 30.37 in 10.0 mi North 17.3 mph 23.0 mph N/A   Overcast
8:55 AM 7.7 °F -8.9 °F -0.0 °F 71% 30.39 in 10.0 mi North 13.8 mph 21.9 mph N/A   Overcast
9:15 AM 8.4 °F -8.6 °F 0.5 °F 70% 30.41 in 10.0 mi North 15.0 mph - N/A   Scattered Clouds
9:35 AM 8.4 °F -7.9 °F 0.3 °F 70% 30.42 in 10.0 mi North 13.8 mph - N/A   Mostly Cloudy
9:55 AM 8.8 °F -7.5 °F 0.7 °F 70% 30.42 in 10.0 mi North 13.8 mph 18.4 mph N/A   Overcast
10:15 AM 9.5 °F -7.2 °F 1.2 °F 69% 30.42 in 10.0 mi North 15.0 mph - N/A   Overcast
10:35 AM 10.2 °F -7.9 °F 1.2 °F 67% 30.41 in 10.0 mi North 18.4 mph 21.9 mph N/A   Overcast
10:55 AM 10.4 °F -6.6 °F 1.2 °F 66% 30.39 in 10.0 mi North 16.1 mph 24.2 mph N/A   Mostly Cloudy
11:15 AM 11.1 °F -7.7 °F 1.6 °F 66% 30.36 in 10.0 mi North 20.7 mph - N/A   Mostly Cloudy
11:35 AM 12.2 °F -5.3 °F 2.1 °F 64% 30.35 in 10.0 mi North 18.4 mph 26.5 mph N/A   Scattered Clouds
11:55 AM 13.5 °F -4.6 °F 2.5 °F 62% 30.35 in 10.0 mi North 20.7 mph 26.5 mph N/A   Clear
12:15 PM 14.0 °F -3.0 °F 2.5 °F 60% 30.33 in 10.0 mi North 18.4 mph 24.2 mph N/A   Clear
12:35 PM 14.7 °F -2.9 °F 2.7 °F 59% 30.32 in 10.0 mi North 20.7 mph 25.3 mph N/A   Clear
12:55 PM 15.3 °F -1.8 °F 3.0 °F 58% 30.32 in 10.0 mi North 19.6 mph 25.3 mph N/A   Clear
1:15 PM 15.4 °F 0.4 °F 3.0 °F 58% 30.33 in 10.0 mi North 15.0 mph 24.2 mph N/A   Clear
1:35 PM 14.9 °F -0.3 °F 2.7 °F 58% 30.34 in 10.0 mi North 15.0 mph 23.0 mph N/A   Clear
1:55 PM 15.4 °F -1.1 °F 3.4 °F 59% 30.34 in 10.0 mi North 18.4 mph 23.0 mph N/A   Clear
2:15 PM 14.9 °F -1.3 °F 3.2 °F 60% 30.35 in 10.0 mi North 17.3 mph - N/A   Clear
2:35 PM 14.7 °F 0.1 °F 2.8 °F 59% 30.37 in 10.0 mi North 13.8 mph - N/A   Clear
2:55 PM 14.0 °F -2.0 °F 3.4 °F 63% 30.36 in 10.0 mi North 16.1 mph - N/A   Mostly Cloudy
3:15 PM 14.0 °F -1.4 °F 3.6 °F 63% 30.36 in 10.0 mi North 15.0 mph 19.6 mph N/A   Overcast
3:35 PM 14.2 °F -1.7 °F 3.9 °F 64% 30.37 in 10.0 mi North 16.1 mph - N/A   Overcast
3:55 PM 14.0 °F -2.5 °F 4.3 °F 65% 30.37 in 10.0 mi North 17.3 mph - N/A   Overcast
4:15 PM 13.8 °F -3.7 °F 4.1 °F 65% 30.38 in 10.0 mi North 19.6 mph - N/A   Overcast
4:35 PM 13.6 °F -3.5 °F 4.1 °F 66% 30.37 in 10.0 mi North 18.4 mph - N/A   Mostly Cloudy
4:55 PM 13.6 °F -3.9 °F 4.6 °F 67% 30.37 in 10.0 mi North 19.6 mph - N/A   Mostly Cloudy
5:15 PM 13.6 °F -2.4 °F 4.8 °F 68% 30.37 in 10.0 mi North 16.1 mph 21.9 mph N/A   Overcast
5:35 PM 13.3 °F -2.9 °F 4.8 °F 69% 30.37 in 10.0 mi North 16.1 mph - N/A   Mostly Cloudy
5:55 PM 13.1 °F -4.2 °F 4.6 °F 69% 30.37 in 10.0 mi North 18.4 mph 21.9 mph N/A   Mostly Cloudy
6:15 PM 13.5 °F -2.7 °F 5.0 °F 69% 30.37 in 10.0 mi North 16.1 mph - N/A   Mostly Cloudy
6:35 PM 13.1 °F -2.6 °F 5.0 °F 70% 30.37 in 10.0 mi North 15.0 mph - N/A   Mostly Cloudy
6:55 PM 13.1 °F -0.7 °F 5.0 °F 70% 30.36 in 10.0 mi North 11.5 mph - N/A   Scattered Clouds
7:15 PM 12.9 °F -0.9 °F 5.0 °F 71% 30.36 in 10.0 mi North 11.5 mph 16.1 mph N/A   Clear
7:35 PM 12.7 °F -1.1 °F 5.0 °F 71% 30.36 in 10.0 mi North 11.5 mph - N/A   Clear
7:55 PM 12.2 °F 0.7 °F 4.8 °F 72% 30.35 in 10.0 mi North 8.1 mph - N/A   Clear
8:15 PM 12.0 °F -2.0 °F 4.6 °F 72% 30.35 in 10.0 mi North 11.5 mph - N/A   Clear
8:35 PM 11.8 °F -2.3 °F 4.5 °F 72% 30.35 in 10.0 mi North 11.5 mph - N/A   Clear
8:55 PM 11.7 °F -2.5 °F 4.1 °F 72% 30.35 in 10.0 mi North 11.5 mph - N/A   Clear
9:15 PM 11.3 °F -2.9 °F 4.5 °F 74% 30.33 in 10.0 mi North 11.5 mph - N/A   Clear
10:15 PM 10.2 °F -2.7 °F 3.9 °F 76% 30.33 in 10.0 mi North 9.2 mph - N/A   Clear
10:35 PM 9.9 °F -2.2 °F 3.7 °F 76% 30.32 in 10.0 mi North 8.1 mph - N/A   Clear
10:55 PM 9.1 °F -1.9 °F 3.2 °F 77% 30.33 in 10.0 mi North 6.9 mph - N/A   Clear
11:15 PM 8.2 °F -4.1 °F 3.0 °F 79% 30.32 in 10.0 mi NNW 8.1 mph - N/A   Clear
11:35 PM 8.4 °F -3.9 °F 3.2 °F 79% 30.33 in 10.0 mi North 8.1 mph - N/A   Clear
11:55 PM 8.4 °F -3.9 °F 3.2 °F 79% 30.32 in 10.0 mi North 8.1 mph - N/A   Clear